x

9014098 - Fort Gratiot, Mi (ftgm4) Weather Station

1:30am - Sat 25th Oct 2014 All times are CDT. -5 hours from GMT.

  • Wind
    8mph, 11mph gusts
  • Air Temp 51°f
  • Sea Pressure 1012mb
  • 9014098 - Fort Gratiot, Mi
  • 9014098 - Fort Gratiot, Mi

More Historic Weather Station data

Upgrade to MSW Pro to gain access to the past 30 days of data for over 8000 Wavebouys and Weather Stations around the globe.

Join Pro

Comparision Forecast

View Surf forecast
   
Sat 10/25 1:30am 8 11 mph 1012mb 51f
1:24am 8 11 mph 1012.1mb 50f
1:18am 8 10 mph 1012.2mb 50f
1:12am 7 10 mph 1012.2mb 50f
1:06am 7 9 mph 1012.2mb 50f
1:00am 8 10 mph 1012.3mb 50f
12:54am 7 11 mph 1012.3mb 50f
12:48am 7 10 mph 1012.3mb 50f
12:42am 7 10 mph 1012.3mb 50f
12:36am 8 9 mph 1012.3mb 51f
12:30am 8 10 mph 1012.4mb 51f
12:24am 7 9 mph 1012.6mb 50f
12:18am 8 9 mph 1012.7mb 50f
12:12am 7 9 mph 1012.8mb 51f
12:06am 7 9 mph 1012.8mb 51f
12:00am 7 9 mph 1012.7mb 51f
Fri 10/24 11:54pm 7 8 mph 1012.7mb 51f
11:48pm 6 9 mph 1012.8mb 51f
11:42pm 6 8 mph 1012.9mb 51f
11:36pm 7 9 mph 1012.9mb 51f
11:30pm 7 8 mph 1012.9mb 51f
11:24pm 7 8 mph 1012.9mb 51f
11:18pm 7 8 mph 1013mb 51f
11:12pm 6 8 mph 1013.2mb 51f
11:06pm 6 8 mph 1013.2mb 52f
11:00pm 7 8 mph 1013.2mb 51f
10:54pm 6 8 mph 1013.2mb 52f
10:48pm 6 8 mph 1013.1mb 52f
10:42pm 6 8 mph 1013.2mb 52f
10:36pm 6 8 mph 1013.4mb 52f
10:30pm 6 8 mph 1013.5mb 52f
10:24pm 7 8 mph 1013.4mb 53f
10:18pm 7 9 mph 1013.5mb 53f
10:12pm 7 8 mph 1013.5mb 53f
10:06pm 7 8 mph 1013.7mb 54f
10:00pm 6 8 mph 1013.6mb 54f
9:54pm 7 8 mph 1013.6mb 54f
9:48pm 6 9 mph 1013.7mb 54f
9:42pm 6 8 mph 1013.7mb 54f
9:36pm 6 8 mph 1013.7mb 54f
9:30pm 6 9 mph 1013.8mb 54f
9:24pm 6 10 mph 1013.7mb 55f
9:18pm 8 10 mph 1013.5mb 55f
9:12pm 6 9 mph 1013.6mb 55f
9:06pm 6 8 mph 1013.6mb 55f
9:00pm 6 7 mph 1013.7mb 54f
8:54pm 6 7 mph 1013.7mb 54f
8:48pm 5 6 mph 1013.8mb 54f
8:42pm 6 7 mph 1013.8mb 54f
8:36pm 6 7 mph 1013.9mb 54f
8:30pm 6 7 mph 1013.8mb 55f
8:24pm 6
mph
1013.9mb 55f
8:18pm 5 6 mph 1014mb 54f
8:12pm 6 7 mph 1013.8mb 54f
8:06pm 5 6 mph 1013.9mb 54f
8:00pm 6
mph
1013.9mb 55f
7:54pm 6
mph
1013.9mb 55f
7:48pm 6 7 mph 1013.8mb 55f
7:42pm 6 7 mph 1014mb 55f
7:36pm 5 6 mph 1014mb 55f
7:30pm 6 8 mph 1013.9mb 55f
7:24pm 6 7 mph 1014mb 55f
7:18pm 5 6 mph 1014mb 55f
7:12pm 5
mph
1014.1mb 56f
7:06pm 5
mph
1014.1mb 55f
7:00pm 3 6 mph 1014mb 55f
6:54pm 5 6 mph 1014mb 56f
6:48pm 6 8 mph 1014.1mb 56f
6:42pm 6 7 mph 1014mb 56f
6:36pm 6 8 mph 1014.1mb 56f
6:30pm 6 9 mph 1014.1mb 57f
6:24pm 6 8 mph 1014.1mb 56f
6:18pm 7 9 mph 1014mb 57f
6:12pm 6 8 mph 1014.1mb 57f
6:06pm 7 11 mph 1014.1mb 57f
6:00pm 8 9 mph 1014mb 58f
5:54pm 7 8 mph 1014mb 58f
5:48pm 6 9 mph 1014mb 57f
5:42pm 6 7 mph 1014mb 58f
5:36pm 6 8 mph 1014.1mb 57f
5:30pm 7 8 mph 1014mb 57f
5:24pm 6 8 mph 1014mb 58f
5:18pm 5 8 mph 1013.9mb 57f
5:12pm 6 7 mph 1013.8mb 58f
5:06pm 5 7 mph 1013.9mb 58f
5:00pm 5 8 mph 1013.9mb 58f
4:54pm 5 8 mph 1013.8mb 59f
4:48pm 6 11 mph 1013.8mb 59f
4:42pm 6 10 mph 1013.8mb 59f
4:36pm 8 11 mph 1013.7mb 59f
4:30pm 8 13 mph 1013.7mb 59f
4:24pm 6 9 mph 1013.7mb 60f
4:18pm 8 10 mph 1013.6mb 60f
4:12pm 7 10 mph 1013.8mb 60f
4:06pm 7 10 mph 1013.8mb 60f
4:00pm 3 9 mph 1013.9mb 59f
3:54pm 6 8 mph 1013.9mb 60f
3:48pm 3 10 mph 1014mb 60f
3:42pm 7 9 mph 1014.1mb 60f
3:36pm 9 11 mph 1014.1mb 60f
3:30pm 3 7 mph 1014.2mb 61f
3:24pm 7 10 mph 1014.1mb 60f
3:18pm 6 10 mph 1014.2mb 60f
3:12pm 7 9 mph 1014.1mb 60f
3:06pm 8 11 mph 1014.2mb 60f
3:00pm 8 13 mph 1014.1mb 60f
2:54pm 7 10 mph 1014.2mb 59f
2:48pm 6 9 mph 1014.2mb 60f
2:42pm 6 11 mph 1014.3mb 60f
2:36pm 5 8 mph 1014.2mb 60f
2:30pm 6 11 mph 1014.1mb 59f
2:24pm 8 10 mph 1014.2mb 59f
2:18pm 8 11 mph 1014.3mb 59f
2:12pm 8 13 mph 1014.4mb 58f
2:06pm 6 10 mph 1014.4mb 59f
2:00pm 10 14 mph 1014.6mb 58f
1:54pm 9 13 mph 1014.6mb 58f
1:48pm 9 13 mph 1014.8mb 59f
1:42pm 7 9 mph 1015mb 59f
1:36pm 6 8 mph 1014.9mb 59f
1:30pm 5 13 mph 1015mb 59f
1:24pm 6 11 mph 1015.1mb 59f
1:18pm 7 10 mph 1015.2mb 59f
1:12pm 8 11 mph 1015.2mb 59f
1:06pm 5 10 mph 1015.2mb 59f
1:00pm 7 10 mph 1015.5mb 58f
12:54pm 7 10 mph 1015.6mb 59f
12:48pm 3 8 mph 1015.7mb 59f
12:42pm 6 13 mph 1015.9mb 60f
12:36pm 10 13 mph 1016mb 59f
12:30pm 6 13 mph 1016mb 59f
12:24pm 7 9 mph 1016.2mb 59f
12:18pm 7 11 mph 1016.2mb 59f
12:12pm 7 10 mph 1016.2mb 59f
12:06pm 7 10 mph 1016.3mb 58f
12:00pm 7 10 mph 1016.3mb 58f
11:54am 3 9 mph 1016.4mb 58f
11:48am 7 10 mph 1016.5mb 58f
11:42am 6 9 mph 1016.4mb 57f
11:36am 3 9 mph 1016.5mb 57f
11:30am 6 9 mph 1016.5mb 56f
11:24am 6 9 mph 1016.6mb 57f
11:18am 7 9 mph 1016.5mb 57f
11:12am 7 9 mph 1016.7mb 56f
11:06am 7 8 mph 1016.6mb 56f
11:00am 7 8 mph 1016.7mb 55f
10:54am 7 9 mph 1016.9mb 55f
10:48am 7 8 mph 1016.9mb 55f
10:42am 6 9 mph 1017mb 54f
10:36am 3 7 mph 1017mb 55f
10:30am 6 8 mph 1017.2mb 54f
10:24am 5 7 mph 1017.3mb 53f
10:18am 3 7 mph 1017.3mb 53f
10:12am 6 7 mph 1017.3mb 53f
10:06am 6 7 mph 1017.3mb 51f
10:00am 6 7 mph 1017.3mb 51f
9:54am 6 8 mph 1017.3mb 50f
9:48am 7 9 mph 1017.4mb 49f
9:42am 8 9 mph 1017.5mb 49f
9:36am 6 11 mph 1017.4mb 49f
9:30am 6 10 mph 1017.5mb 48f
9:24am 7 10 mph 1017.5mb 48f
9:18am 6 10 mph 1017.4mb 48f
9:12am 6 8 mph 1017.6mb 47f
9:06am 5 9 mph 1017.6mb 47f
8:54am 8 10 mph 1017.7mb 46f
8:48am 6 9 mph 1017.8mb 45f
8:42am 8 10 mph 1017.7mb 44f
8:36am 6 9 mph 1017.6mb 43f
8:30am 7 8 mph 1017.7mb 43f
8:24am 5 7 mph 1017.8mb 42f
8:18am 7 9 mph 1017.7mb 41f
8:12am 7 8 mph 1017.7mb 41f
8:06am 7 8 mph 1017.7mb 41f
8:00am 6 8 mph 1017.7mb 41f
7:54am 7 8 mph 1017.7mb 40f
7:48am 6 7 mph 1017.6mb 40f
7:42am 7
mph
1017.5mb 40f
7:36am 6 7 mph 1017.5mb 40f
7:30am 7 9 mph 1017.5mb 40f
7:24am 7 9 mph 1017.5mb 40f
7:18am 7 9 mph 1017.5mb 39f
7:12am 7 9 mph 1017.6mb 39f
7:06am 8 9 mph 1017.5mb 39f
7:00am 8
mph
1017.5mb 39f
6:54am 8
mph
1017.5mb 39f
6:48am 8
mph
1017.5mb 39f
6:42am 7 8 mph 1017.6mb 39f
6:36am 7 8 mph 1017.6mb 39f
6:30am 7 9 mph 1017.6mb 39f
6:24am 8 10 mph 1017.7mb 40f
6:18am 8 9 mph 1017.8mb 40f
6:12am 8 9 mph 1017.7mb 40f
6:06am 9 10 mph 1017.8mb 40f
6:00am 8 9 mph 1017.7mb 40f
5:54am 8 10 mph 1017.7mb 40f
5:48am 6 9 mph 1017.8mb 40f
5:42am 7 9 mph 1017.8mb 39f
5:36am 8 9 mph 1017.9mb 39f
5:30am 7 8 mph 1017.9mb 39f
5:24am 7 9 mph 1017.9mb 39f
5:18am 7 9 mph 1017.8mb 40f
5:12am 8 9 mph 1017.8mb 40f
5:06am 8 9 mph 1017.8mb 39f
5:00am 8 9 mph 1017.8mb 39f
4:54am 8 9 mph 1017.7mb 39f
4:48am 7 8 mph 1017.5mb 39f
4:42am 7 8 mph 1017.5mb 40f
4:36am 7 9 mph 1017.5mb 40f
4:30am 7 8 mph 1017.6mb 39f
4:24am 7 8 mph 1017.5mb 39f
4:18am 8
mph
1017.5mb 39f
4:12am 7 8 mph 1017.5mb 39f
4:06am 7 10 mph 1017.6mb 40f
4:00am 9
mph
1017.6mb 40f
3:54am 8 9 mph 1017.6mb 40f
3:48am 8 9 mph 1017.6mb 39f
3:42am 8
mph
1017.6mb 40f
3:36am 8
mph
1017.6mb 39f
3:30am 8
mph
1017.7mb 39f
3:24am 8
mph
1017.6mb 39f
3:18am 8
mph
1017.6mb 39f
3:12am 7
mph
1017.8mb 39f
3:06am 6 7 mph 1017.8mb 39f
3:00am 6 7 mph 1017.9mb 39f
2:54am 6 7 mph 1018mb 40f
2:48am 7
mph
1018mb 40f
2:42am 7 8 mph 1018mb 40f
2:36am 7 8 mph 1018mb 40f
2:30am 7 8 mph 1017.9mb 39f
2:24am 7 8 mph 1017.9mb 39f
2:18am 7
mph
1017.9mb 39f
2:12am 6 7 mph 1017.9mb 38f
2:06am 6 7 mph 1017.8mb 38f
2:00am 6
mph
1017.8mb 38f
1:54am 3 6 mph 1017.8mb 38f
1:48am 6
mph
1017.9mb 39f
1:42am 6
mph
1017.9mb 39f
1:36am 6 7 mph 1017.9mb 38f
1:30am 5 6 mph 1017.9mb 38f
1:24am 3 6 mph 1018.1mb 39f
1:18am 5 6 mph 1018.1mb 37f
1:12am 6
mph
1018.1mb 38f
1:06am 6 7 mph 1018.2mb 38f
1:00am 6 7 mph 1018.2mb 38f
12:54am 6
mph
1018.3mb 38f
12:48am 5
mph
1018.3mb 38f
12:42am 5 6 mph 1018.3mb 38f
12:36am 3 5 mph 1018.3mb 38f
12:30am 2 3 mph 1018.3mb 39f
12:24am 3
mph
1018.4mb 38f
12:18am 2 3 mph 1018.4mb 38f
12:12am 3
mph
1018.3mb 38f
12:06am 5
mph
1018.5mb 37f
12:00am 5
mph
1018.4mb 38f
Thu 10/23 11:54pm 3 5 mph 1018.5mb 38f
11:48pm 2 3 mph 1018.4mb 38f
11:42pm 2
mph
1018.4mb 39f
11:36pm 2 3 mph 1018.5mb 38f
11:30pm 3
mph
1018.6mb 39f
11:24pm 3
mph
1018.5mb 39f
11:18pm 1 2 mph 1018.6mb 39f
11:12pm 1 2 mph 1018.6mb 39f
11:06pm 1
mph
1018.5mb 39f
11:00pm 1 3 mph 1018.5mb 38f
10:54pm 2
mph
1018.5mb 39f
10:48pm 1 3 mph 1018.5mb 40f
10:42pm 3
mph
1018.6mb 39f
10:36pm 2
mph
1018.7mb 39f
10:30pm  -  1 mph 1018.7mb 39f
10:24pm  -  1 mph 1018.7mb 40f
10:18pm  -  mph 1018.7mb 39f
10:12pm  -  1 mph 1018.7mb 40f
10:06pm 1 2 mph 1018.8mb 40f
10:00pm 2 3 mph 1018.8mb 40f
9:54pm 3
mph
1019mb 40f
9:48pm 3 5 mph 1019mb 42f
9:42pm 5
mph
1019.1mb 41f
9:36pm 5
mph
1019.1mb 40f
9:30pm 3 5 mph 1019.1mb 41f
9:24pm 3
mph
1019mb 40f
9:18pm 3
mph
1019mb 41f
9:12pm 3
mph
1018.9mb 41f
9:06pm 2 3 mph 1018.8mb 41f
9:00pm 1 2 mph 1018.8mb 42f
8:54pm 2
mph
1018.8mb 42f
8:48pm  -  1 mph 1018.7mb 41f
8:42pm 1 2 mph 1018.7mb 42f
8:36pm 1 2 mph 1018.7mb 43f
8:30pm  -  1 mph 1018.7mb 42f
8:24pm 1 2 mph 1018.7mb 43f
8:18pm  -  2 mph 1018.7mb 42f
8:12pm 2 3 mph 1018.7mb 43f
8:06pm 1 3 mph 1018.6mb 43f
8:00pm 2 3 mph 1018.6mb 43f
7:54pm 2 5 mph 1018.6mb 44f
7:48pm 5 7 mph 1018.5mb 46f
7:42pm 6 8 mph 1018.6mb 47f
7:36pm 6 8 mph 1018.6mb 44f
7:30pm 6 7 mph 1018.6mb 45f
7:24pm 5 6 mph 1018.6mb 46f
7:18pm 6
mph
1018.7mb 46f
7:12pm 5 6 mph 1018.9mb 44f
7:06pm 5 6 mph 1019mb 44f
7:00pm 6
mph
1019.1mb 44f
6:54pm 5 6 mph 1019.1mb 45f
6:48pm 5 6 mph 1019.1mb 46f
6:42pm 6 7 mph 1019.2mb 46f
6:36pm 6 7 mph 1019.2mb 46f
6:30pm 5 6 mph 1019.3mb 46f
6:24pm 6 8 mph 1019.4mb 47f
6:18pm 6 7 mph 1019.3mb 48f
6:12pm 6 8 mph 1019.2mb 50f
6:06pm 6 8 mph 1019.2mb 50f
6:00pm 7
mph
1019.2mb 50f
5:54pm 6 7 mph 1019.2mb 50f
5:48pm 6 7 mph 1019.2mb 50f
5:42pm 6 7 mph 1019.2mb 50f
5:36pm 6
mph
1019.3mb 50f
5:30pm 6 7 mph 1019.4mb 50f
5:24pm 7
mph
1019.6mb 50f
5:18pm 7 8 mph 1019.6mb 50f
5:12pm 7 9 mph 1019.6mb 50f
5:06pm 8 9 mph 1019.7mb 50f
5:00pm 8 9 mph 1019.7mb 50f
4:54pm 9 10 mph 1019.6mb 50f
4:48pm 8 9 mph 1019.5mb 51f
4:42pm 8 10 mph 1019.5mb 51f
4:36pm 9
mph
1019.5mb 51f
4:30pm 8 9 mph 1019.5mb 51f
4:24pm 8 9 mph 1019.6mb 50f
4:18pm 8 10 mph 1019.6mb 50f
4:12pm 8 10 mph 1019.7mb 50f
4:06pm 9 10 mph 1019.8mb 51f
4:00pm 8 10 mph 1019.7mb 50f
3:54pm 9 10 mph 1019.8mb 51f
3:48pm 9 10 mph 1019.7mb 51f
3:42pm 9 10 mph 1019.6mb 51f
3:36pm 9 10 mph 1019.7mb 50f
3:30pm 8 9 mph 1019.7mb 51f
3:24pm 9 10 mph 1019.8mb 50f
3:18pm 9
mph
1019.9mb 50f
3:12pm 9 10 mph 1020mb 50f
3:06pm 9 11 mph 1020mb 50f
3:00pm 10 11 mph 1020mb 50f
2:54pm 9 10 mph 1020.1mb 50f
2:48pm 9 11 mph 1020.2mb 50f
2:42pm 10
mph
1020.3mb 50f
2:36pm 10 11 mph 1020.3mb 50f
2:30pm 9 10 mph 1020.4mb 50f
2:24pm 9 10 mph 1020.5mb 50f
2:18pm 9 10 mph 1020.6mb 50f
2:12pm 9 10 mph 1020.6mb 50f
2:06pm 9 10 mph 1020.6mb 50f
2:00pm 9
mph
1020.7mb 50f
1:54pm 9
mph
1020.7mb 50f
1:48pm 8 9 mph 1020.8mb 49f
1:42pm 8
mph
1020.9mb 49f
1:36pm 7 9 mph 1021mb 49f
1:30pm 8 9 mph 1021mb 49f
1:24pm 8 9 mph 1021.1mb 49f
1:18pm 8
mph
1021.1mb 49f
1:12pm 8 9 mph 1021.2mb 49f
1:06pm 7 9 mph 1021.3mb 49f
1:00pm 8 9 mph 1021.5mb 49f
12:54pm 8 10 mph 1021.5mb 49f
12:48pm 8 9 mph 1021.6mb 49f
12:42pm 9
mph
1021.8mb 49f
12:36pm 8 9 mph 1021.8mb 49f
12:30pm 8 10 mph 1021.9mb 49f
12:24pm 8
mph
1021.8mb 49f
12:18pm 7 8 mph 1021.9mb 49f
12:12pm 7 9 mph 1021.9mb 49f
12:06pm 8
mph
1022mb 49f
12:00pm 8 9 mph 1022.1mb 49f
11:54am 8 9 mph 1022.2mb 49f
11:48am 7 9 mph 1022.3mb 49f
11:42am 8
mph
1022.3mb 48f
11:36am 8 9 mph 1022.5mb 48f
11:30am 8 9 mph 1022.6mb 49f
11:24am 8 10 mph 1022.7mb 48f
11:18am 8 10 mph 1022.7mb 48f
11:12am 8 11 mph 1022.8mb 48f
11:06am 8 10 mph 1022.9mb 48f
11:00am 9 11 mph 1023mb 48f
10:54am 9 11 mph 1023mb 48f
10:48am 9 13 mph 1023.1mb 48f
10:42am 9 11 mph 1023.1mb 48f
10:36am 8 11 mph 1023mb 48f
10:30am 10 13 mph 1023.1mb 48f
10:24am 9 11 mph 1023.1mb 48f
10:18am 9 11 mph 1023.1mb 48f
10:12am 10 13 mph 1023.2mb 48f
10:06am 10 13 mph 1023.1mb 48f
10:00am 9 13 mph 1023.1mb 48f
9:54am 8 13 mph 1023.1mb 48f
9:48am 9 14 mph 1023.1mb 48f
9:42am 7 13 mph 1023.1mb 48f
9:36am 11 13 mph 1023.1mb 47f
9:30am 6 10 mph 1023.1mb 47f
9:24am 7 10 mph 1023mb 48f
9:18am 6 11 mph 1023mb 46f
9:12am 8 10 mph 1023mb 46f
9:06am 6 9 mph 1023.1mb 45f
9:00am 6 7 mph 1023.1mb 44f
8:54am 7 10 mph 1023.1mb 44f
8:48am 7 8 mph 1023mb 43f
8:42am 7 10 mph 1023mb 42f
8:36am 7 9 mph 1023.2mb 42f
8:30am 7 9 mph 1023.2mb 41f
8:24am 7 9 mph 1023.2mb 40f
8:18am 8 10 mph 1023mb 41f
8:12am 8 10 mph 1022.9mb 40f
8:06am 8 9 mph 1022.9mb 40f
8:00am 8 9 mph 1022.9mb 39f
7:54am 8 9 mph 1022.9mb 38f
7:48am 7 9 mph 1022.8mb 38f
7:42am 7 9 mph 1022.9mb 38f
7:36am 7 8 mph 1022.9mb 37f
7:30am 6 8 mph 1023mb 37f
7:24am 5 7 mph 1023.1mb 37f
7:18am 6 9 mph 1023.1mb 37f
7:12am 6 8 mph 1023mb 37f
7:06am 6 8 mph 1023.1mb 37f
7:00am 6 9 mph 1023.1mb 37f
6:54am 6 10 mph 1023.1mb 37f
6:48am 6 9 mph 1023mb 37f
6:42am 7 9 mph 1023mb 37f
6:36am 6 10 mph 1023mb 37f
6:30am 7 9 mph 1023mb 37f
6:24am 7 10 mph 1023.1mb 37f
6:18am 6 10 mph 1023.2mb 37f
6:12am 7 10 mph 1023.1mb 37f
6:06am 9 13 mph 1023.1mb 37f
6:00am 9 11 mph 1023.2mb 38f
5:54am 8 11 mph 1023.2mb 38f
5:48am 9 11 mph 1023.2mb 38f
5:42am 8 11 mph 1023.2mb 38f
5:36am 9 11 mph 1023.2mb 38f
5:30am 7 11 mph 1023.2mb 38f
5:24am 8 11 mph 1023.2mb 38f
5:18am 9 13 mph 1023.2mb 38f
5:12am 9 16 mph 1023.2mb 38f
5:06am 7 15 mph 1023.1mb 38f
5:00am 9 13 mph 1023.1mb 38f
4:54am 10 14 mph 1023.1mb 38f
4:48am 8 13 mph 1023.1mb 38f
4:42am 9 13 mph 1023.2mb 38f
4:36am 9 11 mph 1023.2mb 38f
4:30am 9 11 mph 1023.1mb 38f
4:24am 9 11 mph 1023mb 38f
4:18am 8 11 mph 1023mb 38f
4:12am 8 11 mph 1023mb 39f
4:06am 9 13 mph 1023.1mb 39f
4:00am 9 13 mph 1023.1mb 39f
3:54am 10 13 mph 1023.2mb 38f
3:48am 9 13 mph 1023.1mb 39f
3:42am 9 13 mph 1023.2mb 39f
3:36am 8 10 mph 1023.3mb 39f
3:30am 8 11 mph 1023.2mb 40f
3:24am 9 10 mph 1023.2mb 40f
3:18am 8 10 mph 1023.2mb 40f
3:12am 8 10 mph 1023.2mb 40f
3:06am 8 10 mph 1023.2mb 40f
3:00am 9 13 mph 1023.3mb 39f
2:54am 9 14 mph 1023.4mb 38f
2:48am 9 11 mph 1023.5mb 38f
2:42am 8 11 mph 1023.6mb 38f
2:36am 8 9 mph 1023.6mb 38f
2:30am 7 10 mph 1023.7mb 38f
2:24am 6 9 mph 1023.6mb 39f
2:18am 8 11 mph 1023.6mb 39f
2:12am 7 10 mph 1023.6mb 39f
2:06am 8 11 mph 1023.7mb 39f
2:00am 9 14 mph 1023.8mb 39f
1:54am 9 14 mph 1023.8mb 39f
1:48am 9 14 mph 1023.9mb 39f
1:42am 9 14 mph 1023.8mb 39f
1:36am 9 16 mph 1023.8mb 39f
1:30am 8 14 mph 1023.8mb 39f
1:24am 9 14 mph 1023.8mb 39f
1:18am 8 13 mph 1023.8mb 39f
1:12am 8 13 mph 1023.9mb 39f
1:06am 6 9 mph 1023.9mb 39f
1:00am 7 9 mph 1023.9mb 39f
12:54am 7 9 mph 1023.9mb 39f
12:48am 6 8 mph 1023.9mb 39f
12:42am 5 7 mph 1023.9mb 39f
12:36am 5 8 mph 1023.9mb 40f
12:30am 7 11 mph 1023.9mb 40f
12:24am 7 9 mph 1024mb 39f
12:18am 6 8 mph 1023.9mb 40f
12:12am 6 9 mph 1023.8mb 40f
12:06am 7 9 mph 1023.8mb 40f
12:00am 6 10 mph 1023.8mb 41f
Wed 10/22 11:54pm 8 10 mph 1023.8mb 41f
11:48pm 8 10 mph 1023.9mb 41f
11:42pm 9 11 mph 1023.9mb 40f
11:36pm 7 10 mph 1024mb 40f
11:30pm 6 8 mph 1024mb 40f
11:24pm 7 9 mph 1024mb 40f
11:18pm 8 13 mph 1024.1mb 41f
11:12pm 9 13 mph 1024.1mb 41f
11:06pm 9 13 mph 1024.2mb 41f
11:00pm 7 11 mph 1024.2mb 41f
10:54pm 8 11 mph 1024.2mb 41f
10:48pm 9 11 mph 1024.2mb 41f
10:42pm 8 11 mph 1024.3mb 41f
10:36pm 8 13 mph 1024.4mb 40f
10:30pm 9 11 mph 1024.4mb 40f
10:24pm 8 11 mph 1024.5mb 41f
10:18pm 9 11 mph 1024.5mb 41f
10:12pm 8 11 mph 1024.6mb 41f
10:06pm 6 11 mph 1024.6mb 41f
10:00pm 8 11 mph 1024.6mb 41f
9:54pm 9 13 mph 1024.7mb 41f
9:48pm 8 11 mph 1024.7mb 41f
9:42pm 9 13 mph 1024.7mb 41f
9:36pm 7 10 mph 1024.7mb 41f
9:30pm 7 10 mph 1024.7mb 41f
9:24pm 8 10 mph 1024.8mb 42f
9:18pm 8 11 mph 1024.8mb 41f
9:12pm 6 9 mph 1024.9mb 41f
9:06pm 8 11 mph 1024.9mb 42f
9:00pm 7 13 mph 1024.9mb 42f
8:54pm 8 11 mph 1025mb 42f
8:48pm 7 10 mph 1025mb 42f
8:42pm 8 14 mph 1024.9mb 42f
8:36pm 8 14 mph 1024.9mb 42f
8:30pm 9 13 mph 1024.9mb 42f
8:24pm 9 15 mph 1024.9mb 43f
8:18pm 8 10 mph 1024.9mb 43f
8:12pm 7 9 mph 1025mb 43f
8:06pm 6 9 mph 1025mb 44f
8:00pm 6 10 mph 1024.9mb 44f
7:54pm 7 11 mph 1025mb 45f
7:48pm 6 15 mph 1025mb 46f
7:42pm 11 15 mph 1024.9mb 46f
7:36pm 11 22 mph 1024.9mb 47f
7:30pm 20 23 mph 1024.9mb 47f
7:24pm 15 22 mph 1025mb 47f
7:18pm 18 22 mph 1024.9mb 47f
7:12pm 16 22 mph 1024.9mb 47f
7:06pm 20 22 mph 1024.9mb 47f
7:00pm 21 24 mph 1024.9mb 47f
6:54pm 17 23 mph 1025mb 47f
6:48pm 20 23 mph 1025mb 47f
6:42pm 22 24 mph 1024.9mb 47f
6:36pm 21 24 mph 1024.9mb 47f
6:30pm 22 24 mph 1024.9mb 47f
6:24pm 22 24 mph 1024.9mb 47f
6:18pm 23 25 mph 1024.9mb 48f
6:12pm 22 24 mph 1025mb 48f
6:06pm 22 25 mph 1025mb 48f
6:00pm 23 25 mph 1025.1mb 48f
5:54pm 24 25 mph 1025mb 48f
5:48pm 22 25 mph 1025.1mb 48f
5:42pm 22 25 mph 1025.1mb 48f
5:36pm 23 26 mph 1025.1mb 48f
5:30pm 23 26 mph 1025.1mb 48f
5:24pm 22 25 mph 1025.1mb 48f
5:18pm 22 26 mph 1025.1mb 48f
5:12pm 23 26 mph 1025mb 48f
5:06pm 23 25 mph 1024.9mb 48f
5:00pm 24 26 mph 1024.9mb 48f
4:54pm 23 28 mph 1024.9mb 48f
4:48pm 23 25 mph 1024.9mb 48f
4:42pm 22 25 mph 1024.9mb 48f
4:36pm 23 25 mph 1024.9mb 48f
4:30pm 23 25 mph 1024.9mb 48f
4:24pm 23 25 mph 1025mb 48f
4:18pm 23 25 mph 1025mb 48f
4:12pm 23 24 mph 1025mb 48f
4:06pm 23 24 mph 1025mb 48f
4:00pm 23 25 mph 1025mb 48f
3:54pm 22 25 mph 1025mb 49f
3:48pm 22 25 mph 1025mb 48f
3:42pm 22 26 mph 1025.1mb 49f
3:36pm 23 24 mph 1025.2mb 48f
3:30pm 22 24 mph 1025.2mb 49f
3:24pm 22 24 mph 1025.2mb 49f
3:18pm 22 25 mph 1025.3mb 48f
3:12pm 22 24 mph 1025.3mb 49f
3:06pm 23 26 mph 1025.3mb 49f
3:00pm 22 25 mph 1025.2mb 49f
2:54pm 23 25 mph 1025.2mb 49f
2:48pm 23 26 mph 1025.1mb 49f
2:42pm 23 26 mph 1025.2mb 49f
2:36pm 24 26 mph 1025.1mb 49f
2:30pm 22 25 mph 1025.1mb 49f
2:24pm 23 26 mph 1025mb 49f
2:18pm 23 26 mph 1025mb 49f
2:12pm 23 26 mph 1025mb 49f
2:06pm 23 26 mph 1025.1mb 49f
2:00pm 22 25 mph 1025.1mb 49f
1:54pm 23 26 mph 1025.1mb 49f
1:48pm 23 26 mph 1025.1mb 49f
1:42pm 23 24 mph 1025.1mb 49f
1:36pm 22 24 mph 1025.2mb 49f
1:30pm 23 24 mph 1025.1mb 49f
1:24pm 22 24 mph 1025.1mb 49f
1:18pm 22 25 mph 1025.3mb 49f
1:12pm 21 24 mph 1025.4mb 49f
1:06pm 22 24 mph 1025.4mb 49f
1:00pm 22 24 mph 1025.5mb 49f
12:54pm 21 24 mph 1025.6mb 49f
12:48pm 22 24 mph 1025.5mb 49f
12:42pm 20 23 mph 1025.6mb 49f
12:36pm 21 23 mph 1025.6mb 49f
12:30pm 21 25 mph 1025.7mb 49f
12:24pm 21 23 mph 1025.7mb 49f
12:18pm 20 24 mph 1025.8mb 49f
12:12pm 20 22 mph 1025.9mb 49f
12:06pm 20 23 mph 1026mb 49f
12:00pm 21 22 mph 1026.1mb 49f
11:54am 22 23 mph 1026.2mb 49f
11:48am 22 24 mph 1026.3mb 48f
11:42am 21 24 mph 1026.3mb 48f
11:36am 22 24 mph 1026.4mb 48f
11:30am 21 24 mph 1026.4mb 48f
11:24am 21 24 mph 1026.4mb 48f
11:18am 22 24 mph 1026.4mb 48f
11:12am 20 23 mph 1026.4mb 49f
11:06am 22 26 mph 1026.4mb 49f
11:00am 22 25 mph 1026.4mb 48f
10:54am 22 24 mph 1026.5mb 48f
10:48am 22 25 mph 1026.5mb 48f
10:42am 21 23 mph 1026.5mb 48f
10:36am 20 23 mph 1026.5mb 48f
10:30am 21 23 mph 1026.4mb 48f
10:24am 18 23 mph 1026.4mb 48f
10:18am 20 23 mph 1026.3mb 48f
10:12am 21 23 mph 1026.3mb 48f
10:06am 20 24 mph 1026.3mb 47f
10:00am 20 23 mph 1026.2mb 48f
9:54am 18 22 mph 1026.2mb 47f
9:48am 21 23 mph 1026.1mb 47f
9:42am 21 23 mph 1026.1mb 47f
9:36am 20 23 mph 1026mb 47f
9:30am 20 23 mph 1026.1mb 47f
9:24am 20 22 mph 1026.1mb 47f
9:18am 21 22 mph 1026.1mb 47f
9:12am 21 22 mph 1026.1mb 47f
9:06am 18 22 mph 1026mb 47f
9:00am 20 22 mph 1025.9mb 47f
8:54am 22 24 mph 1025.9mb 47f
8:48am 21 23 mph 1025.9mb 47f
8:42am 21 23 mph 1025.9mb 47f
8:36am 20 24 mph 1025.9mb 47f
8:30am 20 22 mph 1025.8mb 47f
8:24am 21 23 mph 1025.8mb 47f
8:18am 22 25 mph 1025.8mb 47f
8:12am 20 22 mph 1025.7mb 47f
8:06am 20 24 mph 1025.7mb 47f
8:00am 21 23 mph 1025.8mb 47f
7:54am 21 23 mph 1025.7mb 46f
7:48am 21 23 mph 1025.6mb 47f
7:42am 20 24 mph 1025.6mb 47f
7:36am 20 23 mph 1025.5mb 47f
7:30am 21 23 mph 1025.4mb 47f
7:24am 22 23 mph 1025.4mb 47f
7:18am 20 24 mph 1025.3mb 46f
7:12am 22 24 mph 1025.2mb 47f
7:06am 22 25 mph 1025.1mb 47f
7:00am 22 24 mph 1025.1mb 47f
6:54am 22 23 mph 1025mb 46f
6:48am 20 23 mph 1024.9mb 46f
6:42am 21 23 mph 1024.8mb 47f
6:36am 21 24 mph 1024.7mb 47f
6:30am 20 23 mph 1024.6mb 47f
6:24am 20 22 mph 1024.5mb 47f
6:18am 20 23 mph 1024.5mb 47f
6:12am 20 23 mph 1024.4mb 46f
6:06am 21 24 mph 1024.4mb 46f
6:00am 21 23 mph 1024.2mb 46f
5:54am 18 22 mph 1024.2mb 46f
5:48am 21 24 mph 1024.2mb 47f
5:42am 20 23 mph 1024.1mb 47f
5:36am 22 25 mph 1024.1mb 46f
5:30am 20 23 mph 1024.1mb 47f
5:24am 21 25 mph 1024mb 47f
5:18am 20 23 mph 1023.9mb 47f
5:12am 21 23 mph 1023.8mb 46f
5:06am 21 24 mph 1023.7mb 47f
5:00am 21 24 mph 1023.6mb 46f
4:54am 17 22 mph 1023.5mb 46f
4:48am 18 22 mph 1023.4mb 46f
4:42am 21 24 mph 1023.4mb 47f
4:36am 21 23 mph 1023.2mb 46f
4:30am 17 22 mph 1023.2mb 47f
4:24am 18 23 mph 1023.2mb 47f
4:18am 20 22 mph 1023.1mb 47f
4:12am 20 23 mph 1023mb 47f
4:06am 20 24 mph 1022.9mb 47f
4:00am 20 24 mph 1022.8mb 47f
3:54am 22 24 mph 1022.9mb 47f
3:48am 21 28 mph 1022.9mb 47f
3:42am 22 26 mph 1022.8mb 47f
3:36am 23 25 mph 1022.8mb 47f
3:30am 22 24 mph 1022.8mb 47f
3:24am 21 25 mph 1022.7mb 47f
3:18am 22 23 mph 1022.7mb 47f
3:12am 21 24 mph 1022.6mb 47f
3:06am 18 23 mph 1022.6mb 47f
3:00am 20 22 mph 1022.6mb 47f
2:54am 21 24 mph 1022.5mb 47f
2:48am 20 23 mph 1022.5mb 47f
2:42am 22 23 mph 1022.5mb 47f
2:36am 22 24 mph 1022.4mb 47f
2:30am 21 24 mph 1022.5mb 47f
2:24am 22 25 mph 1022.5mb 47f
2:18am 22 24 mph 1022.5mb 47f
2:12am 22 25 mph 1022.4mb 47f
2:06am 23 26 mph 1022.4mb 47f
2:00am 24 28 mph 1022.4mb 47f
1:54am 24 29 mph 1022.4mb 47f
1:48am 23 29 mph 1022.3mb 47f
1:42am 25 28 mph 1022.3mb 47f
1:36am 23 28 mph 1022.2mb 47f
1:30am 23 29 mph 1022.2mb 47f
1:24am 22 28 mph 1022.2mb 47f
1:18am 24 29 mph 1022.2mb 47f
1:12am 23 29 mph 1022.2mb 47f
1:06am 24 28 mph 1022.2mb 47f
1:00am 23 26 mph 1022.2mb 47f
12:54am 24 28 mph 1022.2mb 47f
12:48am 25 28 mph 1022.2mb 47f
12:42am 25 28 mph 1022.1mb 47f
12:36am 23 29 mph 1022.1mb 47f
12:30am 25 29 mph 1022.1mb 47f
12:24am 25 28 mph 1022.1mb 47f
12:18am 24 29 mph 1022.1mb 47f
12:12am 24 28 mph 1022mb 47f
12:06am 26 29 mph 1021.9mb 47f
12:00am 26 30 mph 1021.9mb 47f
Tue 10/21 11:54pm 26 29 mph 1021.9mb 47f
11:48pm 26 31 mph 1022mb 47f
11:42pm 25 29 mph 1022mb 47f
11:36pm 25 31 mph 1022mb 47f
11:30pm 26 31 mph 1022mb 47f
11:24pm 25 30 mph 1022mb 47f
11:18pm 26 31 mph 1022mb 47f
11:12pm 26 31 mph 1022mb 47f
11:06pm 30 33 mph 1022.1mb 47f
11:00pm 29 34 mph 1022mb 47f
10:42pm 26 33 mph 1022mb 48f
10:36pm 28 32 mph 1021.9mb 48f
10:30pm 31 34 mph 1021.8mb 48f
10:24pm 32 34 mph 1021.8mb 48f
10:18pm 31 34 mph 1021.7mb 48f
10:12pm 31 34 mph 1021.7mb 48f
10:06pm 30 36 mph 1021.6mb 48f
10:00pm 33 37 mph 1021.6mb 48f
9:54pm 31 37 mph 1021.6mb 48f
9:48pm 32 37 mph 1021.6mb 48f
9:42pm 30 37 mph 1021.5mb 48f
9:36pm 31 36 mph 1021.4mb 48f
9:30pm 31 36 mph 1021.4mb 48f
9:24pm 32 34 mph 1021.3mb 48f
9:18pm 31 36 mph 1021.3mb 48f
9:12pm 34 37 mph 1021.3mb 48f
9:06pm 30 36 mph 1021.2mb 48f
9:00pm 32 36 mph 1021.2mb 48f
8:54pm 32 37 mph 1021.2mb 48f
8:48pm 34 41 mph 1020.9mb 48f
8:42pm 36 40 mph 1021mb 48f
8:36pm 30 37 mph 1020.9mb 48f
8:30pm 31 39 mph 1020.7mb 48f
8:24pm 33 37 mph 1020.6mb 48f
8:18pm 32 37 mph 1020.6mb 48f
8:12pm 30 37 mph 1020.5mb 48f
8:06pm 32 38 mph 1020.4mb 48f
8:00pm 33 40 mph 1020.2mb 48f
7:54pm 34 39 mph 1020.1mb 48f
7:48pm 36 41 mph 1020.1mb 48f
7:42pm 34 43 mph 1020.1mb 48f
7:36pm 34 40 mph 1020mb 48f
7:30pm 36 40 mph 1020mb 48f
7:24pm 33 39 mph 1020mb 48f
7:18pm 36 39 mph 1019.7mb 48f
7:12pm 34 39 mph 1019.9mb 48f
7:06pm 36 44 mph 1019.9mb 48f
7:00pm 33 40 mph 1019.8mb 48f
6:54pm 38 41 mph 1019.5mb 48f
6:48pm 32 40 mph 1019.7mb 48f
6:42pm 36 45 mph 1019.5mb 48f
6:36pm 33 40 mph 1019.6mb 48f
6:30pm 38 43 mph 1019.4mb 47f
6:24pm 37 41 mph 1019.4mb 47f
6:18pm 37 41 mph 1019.3mb 47f
6:12pm 37 40 mph 1019.3mb 47f
6:06pm 36 40 mph 1019.3mb 48f
6:00pm 36 44 mph 1019.1mb 48f
5:54pm 37 41 mph 1019mb 47f
5:48pm 36 40 mph 1018.9mb 47f
5:42pm 36 40 mph 1018.8mb 47f
5:36pm 34 40 mph 1018.8mb 48f
5:30pm 36 41 mph 1018.7mb 47f
5:24pm 34 41 mph 1018.6mb 47f
5:18pm 33 39 mph 1018.6mb 48f
5:12pm 36 41 mph 1018.4mb 47f
5:06pm 38 41 mph 1018.5mb 47f
5:00pm 37 43 mph 1018.4mb 47f
4:54pm 37 40 mph 1018.4mb 47f
4:48pm 36 40 mph 1018.2mb 47f
4:42pm 31 41 mph 1018.2mb 47f
4:36pm 36 43 mph 1018.1mb 47f
4:30pm 33 44 mph 1018.1mb 47f
4:24pm 37 41 mph 1017.9mb 47f
4:18pm 34 41 mph 1017.8mb 47f
4:12pm 33 40 mph 1017.8mb 47f
4:06pm 34 40 mph 1017.7mb 47f
4:00pm 31 41 mph 1017.6mb 47f
3:54pm 38 43 mph 1017.5mb 47f
3:48pm 33 38 mph 1017.5mb 47f
3:42pm 38 43 mph 1017.3mb 47f
3:36pm 36 41 mph 1017.3mb 47f
3:30pm 33 38 mph 1017.2mb 47f
3:24pm 37 43 mph 1017.1mb 47f
3:18pm 32 38 mph 1017mb 47f
3:12pm 33 40 mph 1017mb 47f
3:06pm 36 40 mph 1016.9mb 47f
3:00pm 36 39 mph 1016.8mb 47f
2:54pm 37 44 mph 1016.7mb 47f
2:48pm 37 40 mph 1016.7mb 47f
2:42pm 37 40 mph 1016.6mb 47f
2:36pm 34 39 mph 1016.6mb 47f
2:30pm 33 38 mph 1016.5mb -
2:24pm 31 41 mph 1016.4mb -
2:18pm 36 41 mph 1016.3mb 47f
2:12pm 31 39 mph 1016.3mb 47f
2:06pm 37 41 mph 1016.2mb 47f
2:00pm 34 39 mph 1016.1mb 47f
1:54pm 29 39 mph 1016.1mb 47f
1:48pm 32 39 mph 1016mb 47f
1:42pm 33 43 mph 1015.9mb 47f
1:36pm 38 41 mph 1015.9mb 47f
1:30pm 32 40 mph 1015.9mb 47f
1:24pm 34 39 mph 1015.8mb 47f
1:18pm 33 40 mph 1015.8mb 47f
1:12pm 37 39 mph 1015.7mb 48f
1:06pm 36 40 mph 1015.6mb 48f
1:00pm 36 38 mph 1015.5mb 48f
12:54pm 34 39 mph 1015.5mb 48f
12:48pm 37 40 mph 1015.5mb 48f
12:42pm 34 41 mph 1015.4mb 48f
12:36pm 31 38 mph 1015.4mb 48f
12:30pm 37 39 mph - -
12:24pm 33 40 mph - -
12:18pm 37 40 mph 1015.3mb 48f
12:12pm 36 39 mph 1015.5mb 48f
12:06pm 37 43 mph 1015.3mb 48f
12:00pm 34 41 mph 1015.4mb 48f
11:54am 33 39 mph 1015.4mb 48f
11:48am 31 37 mph 1015.4mb 48f
11:42am 29 38 mph 1015.4mb 47f
11:36am 34 40 mph 1015.3mb 48f
11:30am 32 38 mph 1015.2mb 48f
11:24am 33 40 mph 1015.3mb 48f
11:18am 32 40 mph 1015.1mb 48f
11:12am 34 41 mph 1015.1mb 48f
11:06am 33 40 mph 1015mb 48f
11:00am 36 41 mph 1015mb 48f
10:54am 26 38 mph 1015.1mb 48f
10:48am 34 40 mph 1014.9mb 49f
10:42am 32 40 mph 1014.9mb 48f
10:36am 13 22 mph 1015.1mb 46f
10:30am 11 17 mph 1015.1mb 46f
10:24am 14 21 mph 1015mb 46f
10:18am 10 18 mph 1014.9mb 46f
10:12am 15 20 mph 1014.9mb 46f
10:06am 15 23 mph 1014.9mb 46f
9:54am 14 23 mph 1014.9mb 46f
9:48am 14 20 mph 1014.8mb 47f
9:42am 10 21 mph 1014.8mb 46f
9:36am 21 37 mph 1014.7mb 47f
9:30am 13 20 mph 1014.7mb 47f
9:24am 11 28 mph 1014.6mb 47f
9:18am 14 37 mph 1014.6mb 47f
9:12am 22 33 mph 1014.4mb 47f
9:06am 14 30 mph 1014.5mb 47f
9:00am 8 21 mph 1014.4mb 47f
8:54am 11 18 mph 1014.3mb 47f
8:48am 9 37 mph 1014.3mb 47f
8:42am 23 33 mph 1014.1mb 48f
8:36am 14 22 mph 1014.1mb 47f
8:30am 13 22 mph 1014mb 46f
8:24am 13 22 mph 1014mb 46f
8:18am 11 25 mph 1013.9mb 47f
8:12am 13 22 mph 1014mb 47f
8:06am 9 21 mph 1013.8mb 47f
8:00am 13 21 mph 1013.8mb 47f
7:54am 11 23 mph 1013.7mb 47f
7:48am 13 22 mph 1013.7mb 47f
7:42am 11 22 mph 1013.6mb 47f
7:36am 10 21 mph 1013.6mb 47f
7:30am 13 20 mph 1013.5mb 47f